Wind_Speed
4 5 6 6 8 8 5 6 7 8 9 9 10 10 11 11 11 11 10 10 10 10 10 9 9 9 7 6 5 5 6 6 6 6 7 7 7 6 6 5 5 5 5 5 5 5 5 5 5
2 3 4 4 6 3 3 4 5 7 8 8 9 10 10 10 11 10 10 10 9 9 9 9 9 8 8 6 5 5 5 5 5 6 6 6 6 6 5 5 4 3 3 4 5 5 5 5 5
2 1 2 3 2 2 1 3 4 5 6 7 8 9 10 10 10 10 9 9 9 9 8 9 9 8 8 7 5 5 5 5 5 5 5 5 5 5 5 5 4 3 3 4 5 4 5 4 5
3 2 1 1 2 2 0 1 3 4 5 7 8 8 10 9 10 9 9 9 9 8 8 9 9 8 8 8 6 5 5 5 4 5 5 5 5 5 5 5 4 4 3 4 4 3 3 3 4
4 3 2 2 4 4 2 1 2 3 4 5 7 7 8 8 8 9 8 8 8 8 8 9 8 8 8 8 7 6 6 5 3 4 5 5 5 4 4 4 4 4 3 3 3 3 3 3 3
6 4 4 5 6 5 4 3 1 1 3 4 5 6 7 7 7 7 7 7 7 7 8 8 8 7 7 7 7 7 6 5 4 4 4 4 4 4 4 4 4 3 4 4 3 3 3 3 3
7 7 7 7 7 6 5 4 3 2 1 3 4 5 6 7 7 6 6 6 6 7 8 7 7 7 7 7 7 7 6 5 4 3 3 3 3 3 3 3 3 2 2 3 3 2 3 2 2
8 8 8 9 8 8 7 6 5 4 3 2 4 5 5 6 6 6 6 6 6 7 8 7 6 6 6 7 7 7 6 5 4 3 2 2 1 1 2 2 2 2 2 2 2 2 2 2 1
9 9 9 10 10 10 8 7 6 5 4 3 4 5 5 5 6 6 6 7 7 6 6 6 6 6 6 6 6 6 6 6 4 3 2 1 2 2 2 2 2 2 2 2 1 1 1 1 1
11 11 12 12 11 10 9 8 7 6 5 5 5 5 5 6 5 5 6 6 6 6 6 5 5 5 5 6 6 6 6 6 5 3 3 2 1 1 1 1 1 1 1 1 1 1 1 2 2
13 13 13 13 12 11 10 9 8 7 7 6 6 5 5 5 5 5 5 5 5 5 5 5 4 5 5 5 6 6 6 6 5 4 2 2 1 1 0 1 1 1 1 1 2 2 3 3 3
14 14 13 13 13 12 11 10 9 8 8 8 7 6 5 6 5 6 6 5 5 5 5 5 4 4 5 5 5 6 6 7 5 5 3 2 1 1 0 1 1 1 1 1 1 3 3 3 4
14 13 13 13 13 12 12 11 11 9 9 8 8 7 7 7 7 7 7 5 6 6 6 6 5 5 6 6 5 5 6 6 5 5 4 3 2 1 1 1 2 1 2 2 3 4 4 4 4
14 14 14 14 14 13 13 12 12 11 11 10 10 10 10 9 9 8 7 6 7 7 7 7 7 7 7 6 5 5 5 6 5 5 4 4 2 2 2 2 3 3 3 3 4 4 4 4 5
14 15 16 16 16 15 14 14 14 13 12 12 12 12 12 11 11 10 9 9 9 9 9 8 8 8 8 7 6 6 6 6 5 5 4 4 3 2 3 3 4 4 5 4 4 4 5 5 6
15 16 17 18 17 17 16 16 17 15 14 14 14 14 13 12 12 11 11 11 11 11 11 10 9 8 8 8 8 7 6 6 5 5 4 4 3 3 3 4 5 5 5 5 5 5 6 6 6
16 17 18 19 19 18 17 17 18 17 17 16 16 15 15 14 13 13 13 12 12 12 12 11 11 10 9 9 9 8 8 7 6 6 6 5 5 4 4 5 6 6 6 7 7 6 7 7 8
17 18 19 21 21 20 19 19 20 19 19 18 18 17 16 16 15 15 15 15 14 14 13 13 12 12 11 11 10 10 9 9 8 8 7 7 6 6 5 5 5 6 7 8 8 8 8 8 8
19 19 20 21 22 21 22 21 21 20 21 21 20 20 19 18 18 17 17 17 17 16 15 14 14 14 14 13 12 11 11 11 10 10 9 8 8 7 7 6 6 6 6 7 7 8 8 9 9
21 20 21 22 23 22 23 23 22 21 21 21 21 21 21 20 20 19 18 18 18 18 17 17 16 16 16 15 14 13 13 13 12 12 11 10 9 9 9 8 8 7 7 8 8 9 9 9 10
22 21 22 23 24 23 24 23 22 22 22 22 23 22 22 22 22 20 20 20 20 19 19 19 18 18 17 16 16 16 15 15 14 13 13 11 11 10 10 10 10 9 9 9 10 10 10 10 11
21 22 24 24 24 23 24 23 23 23 23 23 23 23 22 22 22 21 20 21 20 20 20 20 21 20 20 19 18 18 17 17 16 15 14 13 13 12 12 12 12 11 10 10 11 11 11 11 11
22 23 24 24 24 24 24 24 24 25 24 23 23 23 23 23 22 22 21 22 22 22 22 22 22 23 22 22 21 21 20 19 19 18 16 16 15 14 14 14 14 13 12 12 11 11 10 10 11
22 23 24 24 24 25 25 26 25 25 25 24 24 24 24 24 23 23 23 23 24 24 24 24 24 23 23 23 23 23 21 21 21 20 19 18 17 16 16 15 15 14 14 13 12 12 11 12 11
22 22 22 22 23 25 26 27 26 26 26 25 25 25 25 25 25 25 25 25 25 26 26 26 24 23 24 24 24 24 23 22 22 21 20 19 18 17 16 16 15 15 14 14 14 13 13 13 12
23 23 23 22 22 23 26 27 25 27 26 27 26 26 26 26 26 26 26 26 26 26 26 27 26 25 25 25 24 24 24 24 23 22 21 20 19 18 18 18 17 17 16 15 15 15 15 14 13
24 24 23 24 24 25 26 27 27 26 26 26 26 26 26 26 26 27 28 27 27 27 26 27 27 27 27 26 26 26 25 24 23 22 21 21 20 20 19 19 19 19 18 17 17 17 17 16 16
25 25 25 24 24 25 26 26 25 25 24 25 25 26 26 27 27 28 29 28 28 27 27 27 28 28 28 27 27 26 25 25 23 23 22 22 22 22 21 20 20 20 20 20 20 19 19 18 18
25 26 26 26 26 25 25 25 26 27 25 25 26 27 27 27 27 28 29 28 28 27 27 28 29 29 28 28 28 28 26 25 24 23 23 23 23 23 22 22 22 22 21 21 21 20 20 19 18
26 26 26 26 27 27 26 26 28 28 27 27 27 27 27 27 27 28 29 29 28 28 27 28 29 29 29 29 28 28 26 26 25 24 24 24 24 23 23 23 23 23 23 22 21 21 21 20 19
Wind_Direction
102 86 79 71 66 64 66 65 67 67 64 60 55 54 52 49 47 43 39 37 36 39 40 41 40 39 41 46 53 62 64 66 67 69 71 78 75 76 83 92 106 120 137 147 145 146 156 162 164
126 101 85 75 73 70 61 66 74 71 63 56 51 49 48 46 45 42 37 35 35 36 37 38 38 39 37 37 46 53 58 60 60 64 67 69 67 67 73 80 83 94 124 145 157 157 155 160 161
192 143 101 86 102 143 94 74 72 69 60 53 45 44 45 46 46 41 37 41 40 37 36 36 35 36 35 37 43 46 50 54 59 68 68 70 68 64 61 63 70 85 100 123 151 154 155 159 163
223 199 167 137 229 241 262 72 59 62 53 50 40 37 40 46 47 44 43 46 43 39 35 33 34 39 39 38 36 36 39 46 56 68 72 74 74 71 66 67 74 89 108 118 124 134 146 156 161
229 217 227 255 254 257 262 312 29 38 44 41 36 35 37 41 42 44 47 46 40 35 31 31 32 38 40 38 36 34 37 45 64 73 76 79 77 74 70 65 79 87 113 122 133 129 131 136 157
225 224 230 247 256 259 261 269 295 359 27 22 24 27 32 34 38 38 39 40 35 26 21 25 30 32 34 32 32 35 33 36 47 70 78 79 75 71 76 82 90 88 109 131 137 144 139 143 153
228 229 234 242 251 257 257 262 270 290 349 3 7 12 19 26 34 32 24 22 22 19 15 17 23 27 29 26 28 30 27 29 41 63 80 86 84 73 70 86 86 86 91 121 141 146 150 151 148
231 233 238 243 250 255 258 261 267 268 284 332 343 351 359 7 16 16 11 9 11 12 12 14 17 23 23 26 28 30 29 28 33 53 77 83 85 64 66 92 94 94 100 116 135 146 146 149 144
233 231 234 239 245 253 257 262 264 266 274 291 319 334 341 347 356 360 358 357 1 5 8 8 12 20 19 23 27 27 28 27 30 43 58 60 70 80 81 94 103 100 113 126 130 142 146 163 206
237 233 237 240 244 252 256 260 263 265 273 277 292 311 322 332 340 345 345 347 348 352 359 359 4 11 14 18 19 20 22 24 30 32 32 32 50 75 94 106 113 112 140 171 203 250 274 250 246
239 239 242 243 244 247 252 256 260 263 265 269 282 291 305 318 326 326 326 328 331 334 342 344 352 355 358 3 2 5 10 15 18 18 17 6 12 22 8 158 151 141 189 224 254 280 283 271 261
241 242 244 243 243 245 249 253 257 261 259 265 274 280 289 302 305 312 313 312 310 317 318 317 326 336 340 347 350 355 359 8 8 4 355 338 336 339 313 225 193 238 240 256 289 299 288 281 270
239 240 240 241 243 247 251 255 258 262 264 265 266 270 275 284 290 298 296 299 299 301 302 300 310 317 324 332 340 341 346 352 353 354 353 336 312 295 284 278 258 254 255 269 290 306 294 287 280
238 237 237 242 245 250 254 256 259 259 261 264 267 267 271 277 280 286 286 289 294 294 294 293 298 303 311 317 327 338 345 345 347 348 345 346 307 279 277 280 278 280 283 286 290 297 295 288 285
239 238 240 245 248 251 255 256 260 261 260 263 265 264 267 273 274 276 281 281 283 285 288 288 285 291 298 305 314 322 334 337 340 343 334 338 322 288 288 283 282 284 286 287 288 294 295 291 287
243 242 244 248 249 251 252 253 257 260 261 264 264 262 264 270 270 270 274 276 279 281 282 279 277 281 287 294 299 305 313 320 324 327 320 316 318 301 294 289 285 283 284 283 285 287 293 296 292
246 245 247 251 251 251 252 253 255 259 263 264 263 262 262 265 270 271 272 274 277 280 281 274 270 273 279 285 288 291 294 298 303 306 304 299 302 309 303 290 288 285 285 285 287 286 290 295 293
249 249 250 251 252 253 254 255 257 260 263 264 262 260 260 262 266 270 271 272 275 277 278 273 268 269 273 275 279 283 284 285 289 292 294 291 289 292 298 296 295 291 289 289 288 287 289 289 287
251 252 253 254 255 257 258 258 258 260 260 260 261 260 260 262 264 266 269 272 273 275 276 270 267 270 268 269 272 276 278 279 281 283 283 285 284 282 284 286 287 289 291 294 293 292 291 285 283
254 255 256 257 258 259 261 260 260 259 258 258 259 260 262 262 263 265 269 270 271 271 273 270 270 268 266 266 268 271 273 275 277 279 279 282 281 278 277 279 281 283 288 290 293 292 293 291 288
256 256 257 258 260 261 262 264 262 261 260 258 259 260 261 260 262 264 266 268 268 268 269 267 269 266 264 265 268 271 271 272 273 275 275 279 279 277 275 276 280 282 285 288 290 292 291 290 287
258 259 259 260 261 263 264 263 263 262 261 260 260 259 259 260 261 262 263 264 265 267 266 266 267 263 262 264 267 269 268 268 271 273 274 276 277 274 272 274 278 280 283 286 289 293 290 289 288
258 261 262 262 263 264 265 264 263 264 261 262 262 259 259 259 262 262 262 262 262 264 265 264 264 261 260 263 264 264 265 266 267 268 269 272 272 271 270 271 273 277 281 284 287 291 290 289 290
260 263 265 264 264 264 263 263 263 263 261 262 263 262 260 259 260 262 262 262 261 262 263 262 262 260 259 262 263 261 263 265 264 264 264 267 270 269 269 269 271 275 278 279 283 287 288 290 291
260 263 265 266 264 265 266 264 264 262 261 262 262 262 261 260 260 261 261 262 263 261 260 259 259 259 259 261 263 262 261 264 263 263 261 263 267 268 267 268 269 273 275 277 280 285 287 288 288
261 262 260 261 263 266 270 268 266 264 263 264 263 263 262 261 260 260 260 261 261 260 259 257 257 258 259 260 263 264 262 261 261 261 260 261 264 265 265 266 267 268 271 274 278 282 283 284 285
261 261 260 262 264 265 267 269 269 268 266 266 265 263 262 262 260 260 260 261 260 259 258 256 255 256 258 259 260 261 261 259 258 258 258 259 262 263 263 263 263 265 268 272 276 279 280 280 281
261 261 261 262 264 265 269 271 273 269 266 265 265 263 262 261 260 259 259 259 260 259 256 255 253 254 256 257 259 259 261 259 256 254 255 257 260 261 263 264 265 265 268 272 274 275 277 279 280
263 261 261 262 263 264 267 271 270 269 266 264 264 264 264 264 261 260 259 258 257 258 258 255 252 253 255 257 259 260 262 261 259 258 255 256 259 261 263 264 265 266 266 268 271 273 274 276 277
262 262 262 263 265 266 268 270 270 270 268 266 265 265 264 264 262 261 259 258 256 256 257 256 253 253 254 255 257 258 259 260 261 258 256 255 257 260 263 265 264 264 263 265 268 271 273 275 275
Height
5914 5914 5915 5916 5917 5919 5917 5916 5915 5914 5913 5911 5910 5908 5907 5906 5906 5906 5903 5900 5899 5897 5896 5895 5893 5892 5891 5890 5888 5887 5886 5885 5884 5883 5882 5882 5881 5880 5880 5880 5880 5879 5879 5879 5880 5880 5881 5881 5882
5915 5915 5916 5917 5919 5920 5918 5916 5915 5914 5913 5912 5910 5908 5907 5906 5904 5903 5901 5900 5899 5898 5896 5895 5894 5892 5891 5890 5889 5888 5886 5885 5884 5883 5883 5882 5881 5881 5880 5880 5880 5879 5879 5879 5880 5880 5881 5881 5882
5914 5915 5917 5918 5918 5919 5918 5916 5915 5914 5913 5912 5910 5909 5908 5906 5904 5902 5900 5900 5899 5898 5897 5896 5894 5893 5891 5890 5889 5888 5887 5885 5884 5884 5883 5882 5882 5881 5881 5880 5880 5880 5879 5879 5879 5880 5881 5881 5882
5914 5916 5917 5919 5918 5918 5917 5916 5915 5914 5913 5912 5911 5909 5908 5906 5904 5902 5900 5900 5899 5899 5897 5896 5895 5893 5892 5890 5889 5888 5887 5885 5885 5884 5883 5882 5882 5881 5881 5880 5880 5879 5879 5879 5879 5880 5881 5882 5882
5913 5915 5917 5918 5917 5917 5916 5915 5915 5914 5913 5912 5911 5910 5908 5906 5905 5903 5902 5901 5900 5899 5898 5897 5895 5894 5892 5891 5890 5888 5887 5886 5884 5884 5883 5883 5882 5881 5881 5880 5880 5879 5879 5879 5879 5880 5881 5882 5882
5913 5915 5918 5917 5917 5916 5915 5915 5914 5914 5913 5912 5911 5910 5909 5907 5906 5905 5903 5902 5901 5900 5898 5897 5895 5894 5893 5892 5890 5889 5887 5886 5885 5884 5883 5883 5883 5882 5881 5881 5880 5880 5879 5879 5880 5880 5881 5881 5882
5913 5914 5915 5915 5915 5915 5914 5914 5914 5913 5912 5912 5911 5910 5909 5907 5906 5905 5904 5903 5901 5900 5899 5897 5896 5895 5893 5892 5891 5889 5888 5886 5885 5884 5884 5883 5883 5882 5882 5881 5881 5881 5880 5880 5880 5880 5881 5881 5881
5910 5913 5913 5914 5914 5913 5913 5913 5913 5912 5912 5911 5911 5910 5909 5907 5906 5905 5904 5902 5901 5900 5899 5897 5896 5895 5894 5892 5891 5890 5888 5887 5886 5885 5884 5883 5883 5882 5882 5881 5881 5881 5881 5881 5881 5881 5881 5881 5882
5908 5911 5912 5911 5912 5911 5911 5911 5911 5911 5911 5910 5910 5909 5908 5907 5906 5905 5903 5902 5901 5900 5898 5897 5896 5895 5894 5893 5891 5890 5888 5887 5886 5885 5884 5883 5883 5882 5882 5881 5881 5881 5881 5881 5881 5880 5881 5881 5881
5906 5908 5909 5909 5909 5909 5909 5910 5910 5910 5909 5909 5909 5908 5907 5906 5905 5904 5903 5902 5901 5900 5898 5897 5896 5895 5894 5893 5892 5890 5889 5887 5886 5885 5884 5883 5882 5882 5881 5881 5881 5881 5881 5881 5881 5880 5880 5880 5880
5903 5905 5905 5906 5906 5907 5907 5907 5908 5908 5908 5908 5907 5907 5906 5905 5904 5903 5902 5901 5900 5899 5898 5897 5896 5895 5894 5893 5892 5890 5889 5887 5886 5885 5884 5883 5882 5882 5881 5881 5881 5880 5880 5880 5880 5880 5879 5879 5879
5900 5901 5902 5903 5904 5904 5905 5905 5906 5906 5906 5905 5905 5905 5904 5904 5903 5902 5901 5900 5899 5898 5898 5897 5896 5895 5894 5893 5892 5890 5889 5888 5886 5885 5884 5883 5882 5881 5881 5880 5880 5880 5880 5879 5879 5879 5878 5878 5878
5897 5898 5899 5900 5901 5902 5902 5903 5903 5904 5904 5903 5903 5903 5902 5902 5901 5901 5900 5899 5898 5898 5897 5896 5895 5894 5893 5892 5891 5890 5889 5887 5886 5884 5883 5883 5882 5881 5881 5880 5880 5879 5879 5879 5878 5878 5877 5877 5877
5894 5895 5896 5897 5898 5899 5900 5900 5901 5901 5901 5901 5901 5901 5900 5900 5900 5899 5898 5898 5897 5896 5896 5895 5894 5893 5892 5892 5890 5889 5888 5886 5885 5884 5883 5882 5881 5881 5880 5880 5880 5879 5878 5878 5878 5877 5877 5876 5875
5891 5892 5893 5894 5894 5895 5897 5898 5898 5898 5898 5899 5899 5899 5899 5898 5898 5897 5897 5896 5895 5895 5894 5893 5892 5892 5891 5890 5889 5888 5887 5886 5884 5883 5882 5881 5881 5880 5880 5879 5879 5878 5878 5877 5877 5876 5876 5875 5874
5888 5889 5891 5891 5891 5892 5895 5895 5895 5895 5895 5896 5896 5896 5896 5895 5895 5895 5894 5894 5893 5893 5892 5891 5891 5890 5889 5889 5888 5887 5886 5885 5884 5883 5882 5881 5880 5879 5879 5878 5877 5877 5876 5876 5876 5875 5875 5874 5873
5884 5886 5887 5888 5887 5888 5890 5891 5891 5891 5892 5892 5892 5893 5892 5892 5892 5891 5891 5891 5890 5890 5889 5889 5888 5888 5887 5887 5886 5886 5885 5884 5883 5882 5881 5880 5879 5878 5877 5877 5876 5876 5875 5875 5874 5873 5873 5872 5871
5881 5882 5883 5883 5883 5884 5885 5886 5887 5887 5888 5888 5888 5888 5889 5889 5889 5888 5888 5888 5887 5887 5887 5886 5886 5885 5885 5885 5884 5884 5883 5882 5881 5880 5879 5879 5878 5877 5876 5875 5875 5874 5874 5873 5872 5872 5871 5870 5869
5876 5877 5878 5878 5878 5879 5880 5881 5882 5882 5883 5883 5884 5884 5884 5884 5885 5884 5884 5884 5884 5884 5883 5883 5883 5883 5882 5882 5882 5881 5881 5880 5879 5879 5878 5877 5876 5875 5874 5874 5873 5872 5872 5871 5870 5870 5869 5868 5867
5871 5872 5873 5873 5873 5874 5875 5876 5877 5877 5878 5878 5879 5879 5879 5880 5880 5880 5880 5880 5880 5880 5879 5879 5879 5879 5879 5879 5879 5878 5878 5877 5877 5876 5875 5874 5874 5873 5872 5872 5871 5870 5870 5869 5869 5868 5867 5866 5865
5866 5867 5868 5868 5868 5869 5870 5871 5872 5872 5872 5873 5874 5874 5874 5874 5874 5875 5875 5875 5875 5875 5875 5875 5875 5875 5875 5875 5875 5875 5874 5874 5874 5873 5872 5872 5871 5870 5870 5869 5868 5868 5867 5867 5866 5865 5864 5863 5862
5860 5861 5862 5862 5863 5864 5865 5867 5866 5866 5866 5867 5868 5868 5869 5869 5869 5869 5869 5869 5869 5870 5870 5870 5870 5870 5870 5870 5871 5871 5871 5870 5870 5869 5869 5868 5868 5867 5867 5866 5865 5865 5864 5864 5863 5862 5861 5861 5860
5855 5855 5856 5856 5857 5858 5859 5860 5862 5860 5861 5862 5862 5863 5863 5863 5863 5863 5863 5864 5864 5864 5864 5865 5865 5865 5865 5866 5866 5866 5866 5866 5866 5865 5865 5865 5864 5864 5863 5863 5862 5862 5861 5861 5860 5859 5858 5857 5857
5848 5849 5849 5850 5851 5852 5853 5854 5855 5855 5855 5855 5856 5856 5857 5857 5857 5857 5857 5857 5858 5858 5858 5859 5859 5860 5860 5860 5860 5861 5861 5861 5861 5861 5861 5860 5860 5860 5859 5859 5858 5858 5858 5857 5857 5856 5855 5854 5853
5843 5844 5845 5845 5846 5847 5847 5846 5848 5848 5848 5849 5849 5849 5850 5850 5850 5850 5850 5851 5851 5851 5852 5852 5853 5853 5854 5854 5855 5855 5855 5855 5855 5856 5855 5855 5855 5855 5855 5855 5854 5854 5854 5853 5853 5852 5852 5851 5850
5837 5839 5840 5841 5843 5843 5840 5839 5842 5840 5841 5841 5842 5842 5842 5843 5843 5843 5844 5844 5844 5844 5845 5845 5846 5847 5847 5848 5849 5849 5849 5849 5849 5850 5850 5850 5850 5850 5850 5850 5850 5850 5849 5849 5849 5848 5848 5847 5846
5830 5831 5833 5834 5834 5834 5834 5833 5833 5833 5833 5834 5834 5834 5835 5835 5836 5836 5836 5836 5837 5837 5837 5838 5839 5840 5841 5841 5842 5842 5842 5843 5843 5843 5844 5844 5845 5845 5845 5845 5845 5845 5845 5844 5844 5844 5843 5842 5842
5824 5824 5825 5826 5826 5827 5827 5827 5827 5826 5826 5826 5826 5826 5827 5828 5828 5829 5829 5829 5829 5830 5830 5831 5831 5832 5833 5834 5835 5835 5835 5835 5836 5836 5838 5838 5839 5839 5839 5840 5840 5839 5839 5839 5839 5838 5838 5837 5837
5816 5817 5817 5818 5819 5820 5821 5823 5819 5818 5818 5819 5819 5819 5819 5820 5820 5821 5821 5822 5822 5822 5823 5823 5824 5825 5826 5826 5827 5828 5828 5828 5829 5830 5831 5832 5832 5833 5833 5833 5833 5833 5833 5833 5833 5833 5832 5832 5831
5808 5809 5810 5811 5811 5811 5813 5816 5810 5810 5810 5811 5811 5811 5811 5812 5812 5813 5813 5814 5814 5815 5815 5816 5816 5817 5818 5819 5819 5820 5821 5822 5823 5824 5824 5825 5826 5826 5826 5827 5827 5826 5826 5827 5827 5827 5827 5826 5825